Location: New York
(40.7127°N, 74.0060°W)
Time: 19:08:14
(UTC-04:00)

UNISAT 6 - Pass Details

Date: 29 April 2024
Orbit: 593 x 667 km, 97.7° (Epoch: 27 May)

Event Time Altitude Azimuth Distance (km) Brightness Sun altitude
Rises 05:20:18 0° 183° (S) 2,905 ? -7.1°
Reaches altitude 10° 05:22:36 10° 190° (S) 1,990 ? -6.8°
Maximum altitude 05:26:41 41° 261° (W) 893 ? -6.1°
Drops below altitude 10° 05:30:44 10° 333° (NNW) 1,964 ? -5.4°
Sets 05:33:00 0° 340° (NNW) 2,863 ? -5.0°
